ニート彗星

P/2002 O8 ( NEAT ) 2010

English version
Home page
Total 6,336 html files since Dec. 4, 1995
Updated on October 15, 2008

---------------------------------------------------------------------

・ プロフィール

・ 軌道要素

The following orbital elements are taken from MPC 59599:

Epoch 2010 June 13.0 TT = JDT 2455360.5
T 2010 June 8.3829 TT                                   MPC
q   3.213378             (2000.0)            P               Q
n   0.1221641      Peri.  222.4563      +0.4516792      +0.8660683
a   4.022601       Node    75.4411      -0.7475531      +0.4984723
e   0.201169       Incl.   12.7900      -0.4869808      +0.0380929
P   8.07
From 92 observations 2001 May 22-2003 Nov. 19, mean residual 0".5.

・ 星図

・ 光度変化

        m1 = 0.0 + 5 logΔ + 30 log r

---------------------------------------------------------------------

軌道要素はMPCのEphemerides and Orbital Elementsに掲載されたものです。
星図はステラナビゲータ Ver.8 (アストロアーツ) で作成したものです。
光度グラフはComet for Windowsで作成したものです。

---------------------------------------------------------------------

Copyright(C) 1995-2008 Seiichi Yoshida (comet@aerith.net). All rights reserved.